Bartlesville, OK

8:07 AM CDT on July 25, 2017 (GMT -0500)
Bartlesville Municipal

Weather History for KBVO - November, 2012

Change the Weather History Date:

Friday, November 16, 2012

  Actual Average Record
Temperature  
Mean Temperature 44 °F -  
Max Temperature 63 °F 59 °F 83 °F (1952)
Min Temperature 26 °F 35 °F 16 °F (1955)
Degree Days  
Heating Degree Days 20    
Moisture  
Dew Point 32 °F    
Average Humidity 77    
Maximum Humidity 100    
Minimum Humidity 31    
Precipitation  
Precipitation 0.00 in - - ()
Sea Level Pressure  
Sea Level Pressure 30.41 in    
Wind  
Wind Speed 0 mph (ESE)    
Max Wind Speed 5 mph    
Max Gust Speed -    
Visibility 9 miles    
Events      
Averages and records for this station are not official NWS values.
T = Trace of Precipitation, MM = Missing Value Source: NWS Daily Summary

Daily Weather History Graph

Daily Weather History Graph

Search for Another Location

Airport or City:

Trip Planner

Search our weather history database for the weather conditions in past years. The results will help you decide how hot, cold, wet, or windy it might be!

Date:

Astronomy

Nov. 16, 2012 Rise Set
Actual Time 7:03 AM CST 5:13 PM CST
Civil Twilight 6:35 AM CST 5:41 PM CST
Nautical Twilight 6:04 AM CST 6:12 PM CST
Astronomical Twilight 5:33 AM CST 6:43 PM CST
Moon 9:57 AM CST (11/16) 8:15 PM CST (11/16)
Length of Visible Light 11h 05m
Length of Day
10h 10m
Waxing Crescent, 12% of the Moon is Illuminated
Nov 16
Waxing Crescent
Nov 20
First Quarter
Nov 28
Full
Dec 6
Last Quarter
Dec 13
New

Hourly Weather History & Observations

Time (CST) Temp. Dew Point Humidity Pressure Visibility Wind Dir Wind Speed Gust Speed Precip Events Conditions
12:53 AM 30.0 °F 28.9 °F 96% 30.39 in 10.0 mi Calm Calm - N/A   Clear
1:53 AM 28.9 °F 28.0 °F 96% 30.40 in 10.0 mi Calm Calm - N/A   Clear
2:53 AM 28.9 °F 28.0 °F 96% 30.41 in 9.0 mi Calm Calm - N/A   Clear
3:53 AM 28.0 °F 27.0 °F 96% 30.41 in 8.0 mi Calm Calm - N/A   Clear
4:53 AM 28.9 °F 28.0 °F 96% 30.42 in 8.0 mi Calm Calm - N/A   Clear
5:53 AM 28.0 °F 27.0 °F 96% 30.42 in 6.0 mi Calm Calm - N/A   Clear
6:53 AM 26.1 °F 26.1 °F 100% 30.44 in 8.0 mi Calm Calm - N/A   Clear
7:53 AM 30.9 °F 28.9 °F 92% 30.46 in 7.0 mi Calm Calm - N/A   Clear
8:53 AM 39.0 °F 36.0 °F 89% 30.47 in 10.0 mi Calm Calm - N/A   Clear
9:53 AM 46.9 °F 37.9 °F 71% 30.47 in 10.0 mi Calm Calm - N/A   Clear
10:53 AM 54.0 °F 37.9 °F 55% 30.45 in 10.0 mi Calm Calm - N/A   Clear
11:53 AM 59.0 °F 33.1 °F 38% 30.43 in 10.0 mi East 3.5 mph - N/A   Clear
12:53 PM 61.0 °F 32.0 °F 34% 30.40 in 10.0 mi Calm Calm - N/A   Clear
1:53 PM 63.0 °F 33.1 °F 33% 30.38 in 10.0 mi East 3.5 mph - N/A   Clear
3:53 PM 62.1 °F 30.9 °F 31% 30.37 in 10.0 mi SE 4.6 mph - N/A   Clear
4:53 PM 55.9 °F 33.1 °F 42% 30.36 in 10.0 mi Calm Calm - N/A   Clear
5:53 PM 43.0 °F 35.1 °F 74% 30.37 in 10.0 mi Calm Calm - N/A   Clear
6:53 PM 39.9 °F 35.1 °F 83% 30.38 in 10.0 mi Calm Calm - N/A   Clear
7:53 PM 37.9 °F 34.0 °F 86% 30.39 in 10.0 mi Calm Calm - N/A   Clear
8:53 PM 35.1 °F 33.1 °F 92% 30.39 in 10.0 mi Calm Calm - N/A   Clear
9:53 PM 34.0 °F 32.0 °F 92% 30.39 in 10.0 mi Calm Calm - N/A   Clear
10:53 PM 33.1 °F 32.0 °F 96% 30.38 in 10.0 mi Calm Calm - N/A   Clear
11:53 PM 30.9 °F 30.0 °F 96% 30.38 in 9.0 mi Calm Calm - N/A   Clear